Bloomington, IN

11:13 PM EST on February 23, 2018 (GMT -0500)
Monroe County

Weather History for KBMG - April, 2013

Change the Weather History Date:

Thursday, April 4, 2013

  Actual Average Record
Temperature  
Mean Temperature 46 °F 50 °F  
Max Temperature 60 °F 62 °F 79 °F (2005)
Min Temperature 32 °F 38 °F 28 °F (2002)
Degree Days  
Heating Degree Days 19 15  
Month to date heating degree days 102 63  
Since 1 July heating degree days 4928 4819  
Cooling Degree Days 0 0  
Month to date cooling degree days 0 0  
Year to date cooling degree days 0 3  
Moisture  
Dew Point 16 °F    
Average Humidity 39    
Maximum Humidity 64    
Minimum Humidity 14    
Precipitation  
Precipitation 0.00 in 0.15 in 1.42 in (2011)
Month to date precipitation T 0.61  
Year to date precipitation 10.25 10.56  
Sea Level Pressure  
Sea Level Pressure 30.13 in    
Wind  
Wind Speed 3 mph (East)    
Max Wind Speed 12 mph    
Max Gust Speed 17 mph    
Visibility 10 miles    
Events      
T = Trace of Precipitation, MM = Missing Value Source: NWS Daily Summary

Daily Weather History Graph

Daily Weather History Graph

Search for Another Location

Airport or City:

Trip Planner

Search our weather history database for the weather conditions in past years. The results will help you decide how hot, cold, wet, or windy it might be!

Date:

Astronomy

Apr. 04, 2013 Rise Set
Actual Time 7:25 AM EDT 8:13 PM EDT
Civil Twilight 6:58 AM EDT 8:40 PM EDT
Nautical Twilight 6:26 AM EDT 9:12 PM EDT
Astronomical Twilight 5:53 AM EDT 9:45 PM EDT
Moon 3:49 AM EDT (4/4) 2:33 PM EDT (4/4)
Length of Visible Light 13h 41m
Length of Day
12h 47m
Waning Crescent, 34% of the Moon is Illuminated
Apr 4
Waning Crescent
Apr 10
New
Apr 18
First Quarter
Apr 25
Full
May 2
Last Quarter

Hourly Weather History & Observations

Time (EDT) Temp. Windchill Dew Point Humidity Pressure Visibility Wind Dir Wind Speed Gust Speed Precip Events Conditions
12:53 AM 32.0 °F - 21.9 °F 66% 30.30 in 10.0 mi Calm Calm - N/A   Clear
1:53 AM 37.9 °F 33.5 °F 17.1 °F 43% 30.29 in 10.0 mi East 5.8 mph - N/A   Clear
2:53 AM 37.0 °F 32.4 °F 17.1 °F 44% 30.27 in 10.0 mi East 5.8 mph - N/A   Clear
3:53 AM 37.9 °F 32.7 °F 16.0 °F 41% 30.23 in 10.0 mi East 6.9 mph - N/A   Clear
4:53 AM 37.0 °F 33.3 °F 15.1 °F 41% 30.21 in 10.0 mi East 4.6 mph - N/A   Clear
5:53 AM 36.0 °F 33.3 °F 16.0 °F 44% 30.20 in 10.0 mi East 3.5 mph - N/A   Clear
6:53 AM 34.0 °F - 17.1 °F 50% 30.20 in 10.0 mi Calm Calm - N/A   Clear
7:53 AM 32.0 °F 28.7 °F 18.0 °F 56% 30.21 in 10.0 mi East 3.5 mph - N/A   Clear
8:53 AM 37.0 °F 31.6 °F 18.0 °F 46% 30.21 in 10.0 mi East 6.9 mph - N/A   Clear
9:53 AM 39.0 °F 32.8 °F 17.1 °F 41% 30.18 in 10.0 mi East 9.2 mph - N/A   Clear
10:53 AM 42.1 °F 37.7 °F 17.1 °F 37% 30.17 in 10.0 mi East 6.9 mph - N/A   Clear
11:53 AM 46.0 °F 41.9 °F 16.0 °F 30% 30.15 in 10.0 mi ESE 8.1 mph - N/A   Clear
12:53 PM 48.9 °F - 14.0 °F 25% 30.13 in 10.0 mi Variable 3.5 mph - N/A   Clear
1:53 PM 54.0 °F - 14.0 °F 21% 30.10 in 10.0 mi Variable 4.6 mph - N/A   Clear
2:53 PM 55.9 °F - 12.0 °F 18% 30.06 in 10.0 mi Calm Calm - N/A   Clear
3:53 PM 57.9 °F - 12.9 °F 17% 30.03 in 10.0 mi Calm Calm - N/A   Clear
4:53 PM 57.9 °F - 10.9 °F 16% 30.01 in 10.0 mi Calm Calm - N/A   Clear
5:53 PM 57.0 °F - 8.1 °F 14% 30.00 in 10.0 mi Variable 4.6 mph - N/A   Clear
6:53 PM 57.9 °F - 10.9 °F 16% 30.00 in 10.0 mi Calm Calm - N/A   Clear
7:53 PM 55.9 °F - 10.0 °F 16% 30.00 in 10.0 mi Calm Calm - N/A   Clear
8:53 PM 50.0 °F - 17.1 °F 27% 30.01 in 10.0 mi Calm Calm - N/A   Clear
9:53 PM 41.0 °F - 23.0 °F 49% 30.02 in 10.0 mi Calm Calm - N/A   Clear
10:53 PM 39.9 °F - 24.1 °F 53% 30.02 in 10.0 mi Calm Calm - N/A   Clear
11:53 PM 36.0 °F - 24.1 °F 62% 30.01 in 10.0 mi Calm Calm - N/A   Clear